Temp
0 0 1 1 1 1 1 1 1 1 1 1 1 2 5 5 4 3 2 2 2 2 3 4 5 5 6 5 5 5 5 4 5 6 7 9 8 9 9 9 9 11 12 11 12
1 1 0 1 0 0 1 1 1 1 1 1 1 1 4 4 3 2 2 2 2 3 3 2 2 2 3 3 4 3 3 4 6 6 6 6 5 5 5 6 7 8 9 10 10
1 0 1 1 0 1 1 1 0 0 0 0 0 0 3 3 3 2 2 2 1 2 2 2 2 2 2 2 2 2 2 3 3 3 3 4 3 4 3 3 5 5 5 6 7
1 0 0 -0 0 0 0 0 0 0 0 0 0 0 2 2 3 2 2 2 2 2 1 1 1 1 1 0 2 -1 1 1 2 2 2 3 2 2 2 3 3 4 4 5 5
1 1 -0 -0 -0 -0 1 2 3 1 0 1 0 0 2 2 2 2 2 2 2 1 1 0 0 1 -1 -0 0 -1 -0 1 1 2 1 1 1 2 2 2 3 3 4 4 5
1 1 1 -1 1 2 2 4 4 3 3 2 2 2 1 0 2 2 2 1 1 1 1 1 1 0 -0 -0 -1 0 0 0 0 0 1 0 1 1 2 2 2 2 3 4 4
1 0 0 -0 -0 3 4 4 4 4 4 3 2 0 0 2 2 2 2 2 1 1 1 1 1 0 0 -1 0 -0 -2 -0 -0 0 0 1 -1 -0 1 2 2 2 3 4 5
0 0 -1 -1 0 1 4 4 4 4 3 2 1 0 1 2 2 2 2 2 2 1 1 1 1 0 -0 0 -1 -1 -2 -2 1 1 1 0 -1 1 1 1 1 2 2 3 4
0 -0 -1 -1 -0 1 3 3 4 3 3 1 1 1 2 2 2 2 2 2 2 1 1 1 0 -0 -1 -2 -4 -2 -2 -1 -0 2 1 0 -0 1 2 2 2 2 2 3 3
0 -0 -1 -1 -1 -0 2 3 4 3 2 1 1 1 2 2 1 2 2 2 1 1 1 0 -0 -2 -3 -4 -6 -1 -2 -1 -1 0 0 -0 -0 1 1 2 2 2 2 2 2
-0 0 -0 -0 -1 -0 0 2 1 1 1 -1 -1 -1 2 1 1 1 1 1 1 0 -1 -1 -3 -4 -2 -2 -1 -2 -2 -2 -1 0 0 -0 1 0 1 1 1 1 2 2 2
-0 -0 0 1 1 1 0 -1 -4 -3 -4 0 1 -0 1 -0 -0 2 1 1 0 -1 -1 -4 -5 -1 -1 -1 -1 -1 -2 -2 -1 1 1 0 0 1 1 1 1 1 1 2 2
0 -0 -0 0 1 0 -0 -2 -3 -3 -4 -1 1 0 1 0 -0 0 1 1 -1 -3 -3 -6 -2 -1 -1 -1 -1 -1 -2 -2 -2 0 -0 -0 -1 0 2 2 1 1 2 2 2
0 1 -0 -1 1 0 -0 -1 -2 -3 -9 0 1 1 0 0 -2 0 1 0 -1 -5 -3 -6 -3 -1 -1 -2 -1 -3 -0 -0 -1 -2 -3 -1 -2 0 1 -1 -2 -1 -2 -2 -2
-0 1 1 -0 -0 -1 -1 -2 -2 -3 -2 1 0 1 0 -0 -1 0 1 0 -3 -2 -5 -5 -3 -2 -3 -2 -1 -3 -1 -2 -2 -3 -3 -3 -3 -1 -2 -3 -4 -3 -3 -3 -3
-0 0 0 1 0 -0 -1 -1 -2 -5 -3 -1 -0 -0 -1 -1 -1 -0 -0 -1 -2 -5 -5 -3 -1 -4 -3 -1 -2 -2 -4 -4 -7 -9 -9 -3 -2 -2 -4 -4 -4 -4 -4 -4 -4
1 1 1 0 -0 -0 -0 -1 -4 -3 -0 -0 -0 -1 -2 -2 -2 -4 -6 -9 -8 -7 -10 -4 -4 -1 -1 -6 -7 -9 -10 -9 -9 -10 -6 -0 -1 -2 -4 -4 -5 -5 -5 -5 -5
1 0 1 -0 0 -1 -1 -4 -4 -4 -3 -1 -1 -2 -3 -2 -3 -8 -9 -9 -7 -11 -6 -10 -6 -4 -1 -3 -6 -8 -8 -4 -4 -5 -3 -1 -4 -3 -4 -4 -5 -6 -6 -6 -6
0 0 1 0 -0 -1 -1 -7 -2 -2 -1 -2 -3 -5 -5 -3 -7 -8 -11 -10 -7 -9 -8 -11 -8 -1 -1 -2 -5 -8 -7 -4 -3 -12 -9 -6 -2 -4 -3 -4 -5 -6 -6 -7 -7
0 -0 0 1 -1 -2 -5 -2 -3 -1 -1 -2 -5 -5 -7 -7 -8 -9 -9 -6 -8 -6 -7 -8 -6 -2 -2 -5 -5 -5 -3 -3 -8 -7 -8 -6 -5 -6 -6 -7 -7 -8 -8 -8 -8
-0 -1 0 -0 -2 -3 -4 -7 -4 -1 -1 -4 -5 -5 -5 -6 -9 -10 -6 -4 -4 -4 -4 -14 -8 -6 -6 -9 -9 -6 -6 -3 -3 -4 -5 -6 -7 -8 -7 -7 -8 -8 -8 -9 -9
-1 -2 -1 -2 -4 -6 -10 -6 -2 -1 -1 -2 -4 -4 -5 -6 -7 -8 -6 -4 -3 -4 -8 -9 -9 -11 -8 -5 -7 -7 -4 -3 -4 -5 -4 -5 -6 -7 -7 -8 -8 -9 -9 -9 -9
-2 -1 -2 -3 -3 -6 -5 -4 -2 -2 -3 -4 -4 -4 -5 -6 -6 -7 -5 -3 -3 -4 -9 -10 -8 -7 -8 -8 -9 -9 -4 -4 -4 -4 -6 -5 -6 -7 -7 -8 -9 -9 -10 -10 -10
-1 -2 -4 -4 -4 -5 -3 -3 -3 -2 -3 -3 -4 -4 -7 -7 -6 -6 -6 -4 -3 -4 -2 -3 -5 -5 -5 -5 -10 -5 -4 -4 -5 -6 -6 -5 -6 -6 -8 -9 -9 -10 -10 -10 -11
-2 -2 -2 -3 -3 -4 -3 -2 -3 -4 -4 -3 -4 -5 -5 -6 -8 -6 -5 -4 -4 -3 -5 -6 -9 -13 -8 -7 -7 -7 -7 -6 -6 -7 -6 -7 -7 -7 -8 -9 -10 -10 -10 -11 -11
-3 -3 -3 -3 -3 -3 -2 -2 -2 -2 -3 -4 -4 -3 -6 -5 -6 -3 -6 -5 -6 -8 -9 -7 -9 -13 -7 -9 -15 -12 -7 -6 -5 -6 -6 -7 -8 -9 -9 -10 -10 -11 -11 -11 -11
-4 -4 -4 -3 -3 -4 -3 -3 -3 -2 -2 -2 -3 -3 -5 -4 -3 -3 -3 -5 -6 -8 -7 -8 -9 -8 -10 -13 -13 -8 -9 -6 -7 -7 -7 -7 -7 -10 -9 -10 -10 -11 -12 -12 -12
Height
1541 1537 1534 1530 1527 1523 1520 1518 1515 1510 1508 1505 1501 1498 1494 1491 1491 1490 1489 1490 1488 1485 1481 1480 1479 1477 1479 1479 1479 1479 1479 1468 1450 1456 1452 1448 1445 1447 1447 1439 1440 1437 1429 1430 1429
1541 1538 1534 1531 1526 1522 1519 1516 1512 1509 1506 1503 1499 1494 1493 1488 1488 1487 1488 1486 1483 1480 1477 1475 1474 1475 1475 1475 1476 1477 1476 1459 1460 1457 1455 1447 1447 1451 1448 1438 1427 1437 1426 1427 1427
1541 1537 1534 1529 1525 1521 1517 1513 1510 1507 1503 1500 1496 1492 1491 1488 1486 1486 1485 1484 1482 1480 1478 1477 1476 1475 1476 1476 1477 1474 1470 1467 1459 1458 1459 1455 1444 1453 1447 1431 1432 1435 1425 1423 1422
1539 1535 1531 1526 1522 1518 1514 1511 1507 1504 1500 1496 1493 1491 1488 1487 1489 1484 1483 1483 1481 1479 1477 1477 1478 1478 1481 1478 1476 1477 1471 1468 1461 1459 1455 1452 1446 1439 1443 1419 1434 1431 1426 1419 1420
1539 1535 1530 1525 1520 1516 1512 1508 1505 1501 1498 1493 1490 1488 1487 1487 1485 1485 1484 1484 1481 1479 1478 1480 1479 1479 1480 1476 1475 1470 1464 1461 1457 1453 1448 1446 1442 1433 1422 1423 1427 1425 1420 1416 1411
1539 1534 1530 1525 1518 1514 1510 1506 1502 1497 1493 1491 1490 1488 1487 1487 1486 1486 1484 1482 1480 1479 1477 1477 1476 1476 1473 1470 1468 1460 1459 1453 1448 1441 1443 1441 1434 1432 1418 1421 1417 1417 1411 1407 1405
1537 1533 1527 1523 1518 1512 1507 1504 1498 1493 1490 1487 1486 1485 1485 1486 1484 1484 1482 1480 1478 1475 1473 1472 1471 1471 1468 1465 1458 1456 1454 1444 1431 1433 1434 1431 1433 1423 1413 1407 1403 1404 1402 1395 1393
1537 1532 1528 1522 1516 1510 1506 1501 1495 1491 1489 1484 1483 1483 1482 1481 1481 1480 1478 1475 1475 1473 1470 1468 1467 1465 1463 1459 1454 1452 1450 1446 1422 1426 1424 1429 1422 1408 1400 1395 1392 1391 1391 1388 1383
1534 1530 1526 1521 1517 1510 1505 1500 1493 1489 1486 1484 1485 1484 1481 1480 1478 1476 1473 1470 1469 1468 1465 1463 1462 1460 1458 1459 1461 1450 1446 1436 1426 1409 1419 1420 1411 1394 1388 1386 1382 1381 1380 1378 1375
1534 1529 1524 1518 1512 1506 1501 1497 1490 1488 1486 1485 1484 1486 1482 1480 1476 1473 1471 1469 1466 1464 1462 1461 1459 1457 1457 1459 1469 1442 1440 1432 1426 1400 1411 1408 1400 1383 1378 1379 1372 1370 1370 1368 1365
1533 1528 1523 1518 1512 1504 1498 1492 1490 1488 1486 1486 1486 1484 1480 1478 1473 1470 1468 1466 1463 1463 1462 1459 1461 1457 1446 1447 1444 1442 1438 1431 1407 1403 1410 1399 1386 1367 1367 1369 1361 1356 1356 1355 1353
1532 1528 1522 1516 1510 1505 1502 1498 1500 1502 1492 1484 1483 1480 1478 1476 1469 1466 1466 1465 1462 1460 1458 1461 1460 1440 1440 1439 1438 1433 1433 1419 1401 1397 1401 1389 1372 1361 1356 1354 1348 1346 1345 1345 1343
1531 1527 1521 1515 1511 1507 1501 1501 1498 1497 1496 1483 1480 1478 1477 1476 1467 1462 1463 1461 1459 1458 1456 1463 1442 1438 1436 1432 1431 1422 1425 1415 1412 1388 1391 1385 1366 1354 1342 1342 1339 1340 1341 1339 1337
1530 1524 1520 1515 1513 1508 1504 1501 1500 1497 1508 1484 1480 1478 1476 1472 1467 1462 1461 1461 1458 1459 1452 1454 1439 1435 1431 1431 1428 1423 1412 1409 1405 1408 1394 1386 1374 1343 1341 1346 1347 1345 1341 1339 1333
1527 1523 1519 1514 1510 1506 1506 1501 1496 1496 1508 1480 1476 1473 1472 1474 1469 1461 1460 1457 1456 1453 1458 1447 1436 1432 1431 1425 1421 1417 1409 1408 1400 1399 1398 1380 1382 1353 1351 1354 1353 1348 1344 1337 1329
1525 1521 1517 1513 1509 1506 1504 1500 1497 1505 1503 1477 1473 1471 1470 1467 1463 1458 1457 1456 1451 1450 1448 1439 1431 1431 1423 1418 1417 1412 1411 1402 1407 1414 1425 1376 1372 1355 1363 1363 1357 1350 1344 1336 1327
1522 1518 1514 1508 1505 1503 1501 1500 1507 1502 1479 1474 1470 1470 1471 1465 1462 1460 1462 1464 1464 1465 1466 1435 1429 1420 1419 1426 1418 1422 1435 1435 1434 1438 1402 1360 1364 1359 1366 1363 1359 1351 1344 1336 1328
1519 1514 1510 1504 1500 1499 1500 1501 1512 1489 1482 1470 1470 1468 1470 1463 1462 1466 1467 1467 1455 1462 1453 1463 1436 1424 1415 1421 1426 1425 1428 1413 1408 1403 1377 1360 1372 1357 1363 1362 1360 1354 1345 1337 1328
1514 1510 1505 1500 1499 1499 1501 1518 1490 1478 1469 1471 1471 1476 1472 1462 1469 1468 1472 1465 1452 1452 1463 1469 1443 1414 1414 1410 1416 1423 1424 1407 1398 1430 1417 1383 1356 1357 1356 1357 1356 1351 1345 1337 1329
1509 1502 1497 1495 1496 1498 1501 1492 1481 1469 1467 1468 1477 1472 1476 1469 1473 1471 1462 1446 1448 1441 1442 1448 1438 1412 1410 1411 1409 1412 1405 1404 1421 1415 1417 1386 1371 1373 1365 1361 1357 1351 1345 1338 1331
1505 1498 1494 1493 1493 1494 1494 1488 1473 1464 1464 1469 1469 1468 1466 1465 1468 1473 1455 1437 1436 1437 1439 1451 1447 1426 1419 1423 1424 1414 1411 1401 1399 1399 1395 1393 1384 1379 1372 1367 1361 1355 1349 1342 1334
1501 1498 1491 1490 1493 1489 1489 1475 1466 1462 1461 1460 1463 1459 1457 1458 1459 1460 1446 1438 1429 1431 1443 1439 1444 1449 1425 1401 1404 1406 1400 1398 1400 1403 1392 1387 1378 1376 1372 1369 1364 1359 1352 1344 1337
1500 1492 1486 1487 1483 1481 1468 1466 1462 1458 1456 1456 1455 1452 1450 1453 1455 1447 1438 1428 1429 1431 1439 1437 1439 1436 1423 1413 1408 1413 1396 1397 1396 1394 1396 1391 1380 1374 1370 1368 1365 1361 1355 1348 1341
1502 1490 1484 1481 1475 1473 1466 1459 1455 1449 1447 1447 1444 1446 1449 1447 1443 1437 1432 1426 1424 1425 1425 1425 1423 1423 1418 1408 1418 1403 1394 1393 1395 1400 1393 1384 1376 1370 1372 1370 1366 1362 1358 1352 1347
1500 1486 1480 1475 1466 1466 1463 1457 1449 1447 1445 1443 1439 1439 1437 1437 1441 1433 1424 1422 1421 1419 1419 1422 1430 1437 1418 1409 1406 1403 1397 1391 1392 1392 1392 1386 1383 1375 1376 1374 1370 1365 1360 1354 1350
1496 1488 1473 1468 1463 1458 1454 1446 1445 1436 1441 1436 1433 1422 1427 1424 1425 1417 1421 1420 1416 1416 1417 1418 1424 1432 1406 1403 1419 1411 1390 1386 1382 1384 1385 1383 1381 1377 1377 1375 1369 1367 1362 1357 1351
1486 1481 1474 1461 1458 1455 1447 1438 1433 1435 1429 1427 1422 1421 1420 1415 1411 1404 1407 1407 1408 1413 1413 1415 1419 1419 1418 1415 1413 1400 1391 1381 1384 1382 1383 1382 1376 1376 1377 1377 1374 1367 1365 1361 1356
Wind_Speed
22 22 20 21 22 23 23 23 23 22 21 22 23 23 24 18 9 6 10 7 10 13 21 25 23 20 17 7 2 7 5 13 28 18 21 29 20 29 29 33 27 31 33 28 30
24 24 23 23 23 23 23 23 22 22 22 23 23 22 19 12 8 5 7 10 12 19 23 21 18 17 6 3 3 3 6 20 13 14 17 27 25 21 19 27 36 29 46 42 32
24 24 24 24 25 25 24 24 22 23 22 23 21 20 14 12 3 1 7 9 11 16 17 18 13 12 3 2 4 4 10 11 21 26 27 28 34 24 20 24 28 22 33 29 30
23 28 27 27 26 26 25 25 24 24 24 22 20 16 15 7 3 2 6 10 16 20 19 16 11 5 2 4 5 5 10 15 22 27 28 22 34 29 28 41 32 36 43 51 35
25 28 29 29 29 27 27 25 25 26 25 24 16 14 16 5 2 3 8 14 17 14 12 10 6 5 4 4 11 14 10 20 25 28 30 32 26 32 38 43 38 40 42 43 48
24 28 30 29 28 29 28 24 27 25 25 12 12 16 9 1 3 7 15 16 13 12 14 12 5 10 11 7 6 10 14 21 24 29 28 24 26 32 43 46 40 35 42 47 47
24 26 28 28 29 29 26 26 27 26 13 11 14 9 4 5 3 8 17 14 14 13 16 13 14 12 5 6 23 19 9 19 25 23 20 31 21 27 41 41 36 33 36 38 39
27 26 28 31 30 29 25 27 25 21 20 14 3 7 4 5 7 14 16 16 11 11 19 19 13 21 18 13 7 4 4 5 17 3 13 7 20 25 42 41 34 33 32 37 38
26 25 25 29 30 30 27 30 26 4 19 5 1 1 2 3 12 14 15 16 17 19 16 13 11 10 4 2 5 3 7 16 19 16 11 8 20 25 38 37 33 31 30 31 33
26 26 26 27 28 26 28 30 20 2 11 2 3 1 3 10 18 21 9 12 16 16 11 3 4 3 1 3 4 12 15 18 21 28 22 22 24 31 38 35 35 38 35 36 37
25 26 29 29 29 21 29 26 22 3 12 5 11 8 10 15 18 21 7 14 9 5 3 3 3 7 11 10 12 14 15 21 30 26 19 22 24 30 26 26 25 34 34 35 38
23 26 31 31 26 20 24 19 13 9 11 2 7 14 11 10 17 11 9 5 3 7 3 4 8 11 6 7 11 17 17 26 27 17 10 26 32 28 28 26 27 30 31 32 34
26 25 29 32 22 22 18 20 20 7 4 8 7 9 6 13 8 12 6 6 5 4 4 5 11 9 11 12 16 21 12 19 20 29 19 17 21 16 18 14 20 25 30 31 31
26 25 27 31 19 25 11 21 19 7 4 4 3 3 4 21 6 10 3 5 3 5 4 6 5 8 11 14 14 17 6 13 21 15 13 8 15 18 10 9 15 14 22 23 30
26 26 28 28 32 19 15 23 10 2 5 2 4 5 11 3 14 0 6 4 7 7 5 10 8 13 14 10 10 12 12 15 20 18 14 5 7 5 9 9 17 17 24 30 28
26 29 29 29 32 12 17 19 4 5 6 4 3 3 5 3 4 6 4 10 8 2 3 15 9 3 7 7 6 14 9 16 2 2 1 7 5 1 4 10 14 16 24 28 29
28 30 30 33 26 13 14 8 4 3 1 4 4 3 7 5 4 2 3 6 1 5 4 6 4 4 4 7 6 8 6 4 5 4 6 9 11 4 8 11 12 17 23 27 29
30 32 34 33 12 8 10 4 2 3 5 2 3 8 6 1 3 4 5 5 2 3 4 1 9 2 4 3 7 2 5 3 7 5 17 12 4 4 8 7 15 18 22 25 28
32 31 39 21 7 4 2 2 6 7 4 3 6 1 4 2 2 4 4 4 5 8 4 1 7 6 14 7 6 6 0 4 5 1 3 4 3 4 15 17 15 15 22 24 27
34 34 24 10 8 2 3 8 6 5 4 4 7 5 5 3 2 1 3 5 5 10 3 4 9 6 3 5 2 6 2 3 2 5 6 5 4 4 16 18 18 17 16 24 27
30 11 9 9 10 4 4 7 6 14 9 6 6 4 9 3 5 3 6 4 5 4 3 4 5 8 6 2 5 4 2 4 3 2 3 5 5 3 8 13 15 15 22 24 25
16 4 8 12 2 3 3 6 5 5 14 9 5 8 8 6 4 6 9 8 9 6 4 6 4 4 11 11 5 5 3 2 3 5 4 3 6 1 6 10 12 14 21 23 24
17 14 12 15 5 5 5 6 8 7 8 8 7 10 8 6 5 9 5 9 21 5 5 4 3 5 10 6 5 2 3 5 5 3 4 2 5 2 9 11 15 15 21 23 23
12 4 5 17 15 5 9 9 9 11 9 9 9 9 4 6 10 6 8 5 11 8 13 10 5 11 10 13 2 14 15 13 5 2 3 6 10 7 10 11 12 18 21 22 23
8 5 6 8 10 14 13 16 14 9 11 11 3 14 11 7 3 11 15 18 16 22 6 6 4 3 12 18 15 17 17 15 6 5 4 4 6 7 5 7 10 16 20 20 23
15 8 9 19 17 17 11 12 22 25 9 5 17 20 12 14 12 18 8 7 6 2 5 3 4 2 20 12 4 5 9 9 7 3 6 6 7 2 2 8 13 14 18 19 22
19 19 22 17 11 9 15 23 22 17 26 25 17 15 15 21 32 35 30 18 8 6 7 5 2 1 6 3 5 4 5 4 3 3 3 3 4 2 1 4 8 16 17 16 20
Wind_Direction
359 357 357 355 348 347 346 342 339 337 335 333 329 328 332 339 15 58 29 21 346 337 329 321 314 316 305 299 294 251 242 250 246 252 270 299 304 296 296 284 289 271 271 283 290
354 356 356 350 343 342 342 338 337 334 332 330 328 328 340 346 346 89 9 352 340 331 337 354 355 347 359 310 274 208 228 246 283 292 294 306 306 321 312 304 282 283 278 285 290
349 352 352 349 346 341 340 338 336 332 330 328 329 328 347 338 341 21 352 348 341 336 342 343 337 351 354 326 230 256 248 303 296 304 304 300 296 307 301 280 280 317 308 302 304
344 346 351 346 345 342 339 337 334 331 329 326 325 320 338 330 308 73 340 336 336 333 336 343 336 337 243 223 261 295 277 275 278 286 288 283 293 286 279 274 292 291 293 296 296
350 347 347 346 343 341 340 340 339 332 328 324 320 305 331 316 206 287 318 326 335 338 347 336 279 213 210 224 266 244 254 256 270 277 279 286 279 279 276 283 284 281 282 278 284
353 344 343 348 345 342 341 346 340 330 327 336 331 318 319 338 131 342 334 324 329 324 320 316 275 276 267 238 217 251 267 275 274 270 274 271 272 280 285 288 282 276 273 272 275
350 340 345 346 344 340 343 346 336 331 340 302 321 295 280 176 246 341 327 320 319 310 303 306 286 266 235 266 266 256 280 290 274 266 259 269 280 271 276 279 278 275 270 269 266
352 345 345 344 343 338 344 346 335 337 349 336 346 227 249 207 301 313 316 312 310 307 297 292 280 264 247 260 297 256 262 276 285 172 264 219 268 266 266 267 266 268 268 273 270
346 345 342 343 341 338 344 348 334 4 348 5 93 241 225 290 315 321 332 317 313 316 311 283 268 236 218 229 317 236 275 286 296 288 269 256 276 272 271 267 271 265 257 263 273
343 342 345 344 344 338 344 349 348 332 1 177 297 230 278 325 323 325 322 307 298 299 309 220 241 245 347 118 247 291 294 290 281 289 301 280 277 270 271 268 268 269 264 264 260
342 346 346 348 345 339 345 3 20 347 1 302 291 276 300 316 314 320 326 316 286 261 239 243 237 242 259 213 250 266 274 276 281 288 285 285 283 275 276 270 264 262 259 255 253
343 345 346 348 348 348 345 24 13 327 315 249 277 267 293 313 304 322 306 302 278 271 265 345 241 269 247 252 262 271 275 280 287 284 299 298 284 284 282 273 266 263 260 253 254
348 343 342 344 348 344 349 2 349 331 273 286 283 267 284 314 285 298 298 298 250 260 201 182 257 293 281 277 303 283 267 278 276 305 301 285 282 281 289 276 270 270 271 263 252
349 348 342 340 351 341 341 343 334 321 54 273 288 276 260 329 279 300 250 309 311 265 292 235 273 269 276 285 294 283 232 280 295 303 296 0 290 309 301 25 13 349 341 320 317
339 346 342 342 336 333 329 337 338 340 355 227 262 261 313 345 288 338 276 278 233 244 78 257 285 292 296 273 291 264 295 281 280 275 285 281 236 291 28 355 345 333 328 327 319
335 338 340 336 334 325 331 333 339 36 257 331 270 281 328 285 251 284 276 293 275 292 278 257 260 239 237 290 258 287 314 306 7 101 7 255 209 282 14 334 325 326 327 329 333
334 332 333 326 319 305 328 329 16 153 1 268 278 333 322 271 292 34 346 318 200 15 313 304 247 260 209 350 342 40 22 326 340 351 239 308 301 299 1 348 330 327 326 331 337
330 323 327 323 298 288 338 40 150 246 230 7 276 296 249 309 262 323 339 294 241 100 299 297 314 234 192 172 238 289 153 270 305 312 300 312 244 170 43 3 342 332 329 333 339
327 324 328 324 253 284 335 58 224 211 187 227 330 303 280 228 192 17 201 240 241 177 175 308 268 273 284 286 129 280 224 227 267 294 355 275 273 182 351 354 350 341 338 338 339
325 318 312 294 228 256 104 248 237 220 162 128 189 193 238 248 342 114 202 204 251 193 175 272 294 277 326 357 314 173 324 285 357 311 301 286 287 281 333 339 341 342 342 339 341
338 301 292 262 229 217 227 227 267 253 186 167 218 242 237 251 210 217 253 263 196 206 174 146 213 285 12 214 209 340 271 239 252 229 281 306 281 264 324 334 334 338 342 340 344
324 281 287 250 229 216 210 209 234 246 215 227 234 235 218 187 241 232 229 235 179 145 204 207 224 274 242 275 197 173 242 261 248 292 238 269 280 344 347 340 341 339 344 347 356
308 282 277 212 242 242 256 255 253 235 203 203 232 220 202 211 230 220 224 234 252 234 209 205 257 310 324 354 3 167 227 255 304 270 229 261 272 12 9 354 345 342 348 351 1
297 292 233 211 245 267 278 272 270 254 247 226 242 216 183 221 226 258 239 254 228 218 231 269 226 234 254 267 228 294 290 293 252 224 275 246 296 344 354 344 342 345 348 355 6
276 258 263 273 255 258 270 277 275 271 224 228 235 221 212 238 211 236 258 264 267 266 266 194 234 193 262 265 273 263 269 277 219 219 209 271 296 318 346 336 333 339 349 357 4
276 280 272 269 273 282 262 275 284 289 273 243 238 245 230 243 219 265 219 210 217 262 149 189 259 130 290 277 189 258 253 241 246 199 253 272 292 174 71 6 345 354 355 357 360
302 289 289 285 286 276 277 276 280 294 285 284 290 288 272 262 255 254 264 243 224 189 191 175 173 334 263 332 332 338 232 200 223 211 186 249 241 4 41 28 351 349 359 360 9